[[{"header":{"parameterUnit":"m.s-1","parameterCategory":1,"la1":30.2991,"la2":30.254,"lo1":-89.0895,"lo2":-89.0444,"dy":0.0017,"dx":0.0017,"nx":28,"ny":28,"refTime":"2024-03-03T03:00:00:Z","depth":0,"parameterNumber":2,"parameterNumberName":"U-component_of_WINDS"},"data":[0,0,0,0,0,0,0,0,0,0,0,0,0,0,0,0,0,0,0,0,0,0,0,0,0,0,0,0,0,0,0,0,0,0,0,0,0,0,0,0,0,0,0,0,0,0,0,0,0,0,0,0,0,0,0,0,0,0,-3.4082,-3.4082,0,-3.4085,-3.4085,-3.4085,-3.4005,-3.4003,-3.4001,-3.3999,-3.4002,-3.4004,-3.4006,0,0,0,0,0,0,0,0,0,0,0,0,0,-3.4007,-3.4009,-3.4082,-3.4082,-3.4082,-3.4085,-3.4085,-3.4085,-3.4006,-3.4003,-3.4001,-3.3998,-3.4002,-3.4004,-3.4007,0,0,0,0,0,0,0,0,0,0,0,0,0,-3.4028,-3.401,-3.4082,-3.4043,-3.4039,-3.4085,-3.4085,-3.4085,-3.4006,-3.4003,-3.4,-3.3997,-3.4001,-3.4004,-3.4007,-3.409,0,0,-3.4016,-3.4018,0,0,0,0,0,0,0,0,-3.4027,-3.4031,-3.4048,-3.4045,-3.4042,-3.4042,-3.406,-3.4087,-3.4007,-3.4019,-3.3999,-3.3995,-3.4018,-3.4019,-3.4027,-3.409,-3.4091,-3.4017,-3.4019,-3.402,-3.4021,0,0,0,0,0,0,0,-3.4026,-3.403,-3.4083,-3.4049,-3.4045,-3.4025,-3.4024,-3.4065,-3.4036,-3.4018,-3.4012,-3.4013,-3.4015,-3.4024,-3.4027,-3.4091,-3.4017,-3.4019,-3.4021,-3.4022,-3.4223,-3.4227,0,0,0,0,0,0,-3.403,-3.403,-3.4083,-3.4083,-3.4026,-3.4029,-3.4028,-3.4045,-3.4036,-3.4031,-3.4016,-3.401,-3.402,-3.4023,-3.4026,-3.4124,-3.402,-3.4023,-3.4025,-3.422,-3.4224,-3.4228,0,0,0,0,0,0,-3.4028,-3.4035,-3.4083,-3.4055,-3.4059,-3.4034,-3.4053,-3.4047,-3.4055,-3.4034,-3.4029,-3.403,-3.4018,-3.4022,-3.4075,-3.4123,-3.4024,-3.4027,-3.4216,-3.4221,-3.4226,-3.4319,0,0,0,0,0,0,-3.4026,-3.4035,-3.4066,-3.4056,-3.4061,-3.4132,-3.4056,-3.4049,-3.4061,-3.4052,-3.4046,-3.4042,-3.4016,-3.4071,-3.4078,-3.4125,-3.4029,-3.4212,-3.4218,-3.4224,-3.4312,-3.4327,-3.434,0,0,0,0,0,-3.4024,-3.4092,-3.4068,-3.4075,-3.41,-3.4135,-3.4137,-3.4106,-3.4065,-3.4096,-3.4083,-3.4042,-3.4117,-3.4077,-3.4085,-3.4133,-3.4208,-3.4216,-3.4224,-3.4306,-3.4324,-3.434,0,0,0,0,0,0,-3.4108,-3.409,-3.4063,-3.413,-3.4135,-3.4121,-3.4159,-3.4126,-3.4142,-3.4134,-3.4094,-3.4093,-3.4153,-3.4148,-3.4105,-3.4214,-3.4155,-3.4165,-3.4215,-3.4232,-3.4246,-3.4246,-3.4032,0,0,0,0,0,-3.4135,-3.4164,-3.4147,-3.4208,-3.4211,-3.4186,-3.4199,-3.4175,-3.4178,-3.4179,-3.4169,-3.4174,-3.4198,-3.4215,-3.4236,-3.4311,-3.4309,-3.4348,-3.4362,-3.4374,-3.4383,-3.4423,-3.444,-3.4254,-3.4254,-3.4253,0,0,-3.4189,-3.4183,-3.4204,-3.4224,-3.4225,-3.4257,-3.4187,-3.4224,-3.4247,-3.4184,-3.4234,-3.4228,-3.423,-3.4295,-3.4323,-3.4293,-3.4434,-3.4384,-3.4394,-3.4396,-3.4433,-3.445,-3.4466,-3.4259,-3.4258,-3.4257,0,0,-3.4305,-3.4304,-3.4354,-3.4356,-3.4358,-3.4341,-3.4353,-3.4345,-3.4338,-3.4388,-3.4341,-3.4369,-3.4411,-3.4415,-3.4423,-3.4542,-3.4505,-3.455,-3.4623,-3.4663,-3.4677,-3.469,-3.4733,-3.4749,-3.4559,-3.4559,-3.4559,0,-3.4373,-3.4419,-3.4384,-3.4424,-3.4435,-3.438,-3.4431,-3.4435,-3.4444,-3.4452,-3.4419,-3.4472,-3.4469,-3.4534,-3.4564,-3.4572,-3.4585,-3.455,-3.4678,-3.4691,-3.4702,-3.4742,-3.4759,-3.4564,-3.4564,-3.4563,-3.4563,0,-3.4502,-3.4535,-3.4576,-3.4586,-3.4601,-3.4647,-3.4619,-3.4639,-3.4614,-3.46,-3.4651,-3.4647,-3.4666,-3.468,-3.4655,-3.4742,-3.4724,-3.4685,-3.4625,-3.4726,-3.4763,-3.4778,-3.4572,-3.457,-3.4568,-3.4567,0,0,-3.467,-3.4662,-3.4677,-3.4682,-3.468,-3.4705,-3.4748,-3.4768,-3.4786,-3.4794,-3.4829,-3.4867,-3.4832,-3.4841,-3.4816,-3.4851,-3.4946,-3.4807,-3.4807,-3.4833,-3.5042,-3.5071,-3.509,-3.4922,-3.4925,-3.4927,-3.5042,0,-3.4783,-3.4856,-3.4827,-3.4903,-3.4933,-3.4882,-3.492,-3.4924,-3.4913,-3.4937,-3.4924,-3.4952,-3.4902,-3.4907,-3.494,-3.4928,-3.4987,-3.4919,-3.4955,-3.4956,-3.4955,-3.5109,-3.514,-3.5248,-3.5056,-3.5059,-3.506,0,-3.4924,-3.4938,-3.5018,-3.5012,-3.5023,-3.5058,-3.5074,-3.5098,-3.5101,-3.509,-3.5101,-3.5069,-3.5111,-3.5053,-3.5111,-3.5065,-3.5078,-3.5075,-3.5078,-3.508,-3.5014,-3.5115,-3.5282,-3.5299,-3.5083,-3.5081,-3.5079,0,-3.5039,-3.5078,-3.5131,-3.5136,-3.5131,-3.5156,-3.5155,-3.5155,-3.5169,-3.5183,-3.5192,-3.5211,-3.5222,-3.5237,-3.5211,-3.5171,-3.5274,-3.5212,-3.5266,-3.5267,-3.529,-3.5289,-3.5461,-3.5299,-3.5299,-3.5298,-3.5298,0,-3.5167,-3.5218,-3.5182,-3.5215,-3.527,-3.5236,-3.5292,-3.5285,-3.5286,-3.5317,-3.5274,-3.5304,-3.5268,-3.5294,-3.5274,-3.5326,-3.5331,-3.5324,-3.5318,-3.5328,-3.5329,-3.5335,-3.5327,-3.5303,-3.5302,-3.5301,-3.53,0,-3.5304,-3.5283,-3.5337,-3.5328,-3.5327,-3.5368,-3.536,-3.539,-3.5376,-3.5415,-3.5423,-3.5401,-3.543,-3.5406,-3.5434,-3.542,-3.5489,-3.5472,-3.5488,-3.5483,-3.5539,-3.5534,-3.5722,-3.5745,-3.5568,-3.5569,-3.5571,0,-3.5388,-3.5426,-3.5421,-3.5438,-3.544,-3.5469,-3.5483,-3.5452,-3.5468,-3.5476,-3.5505,-3.553,-3.5549,-3.5597,-3.5584,-3.5606,-3.5589,-3.5654,-3.5592,-3.5601,-3.559,-3.5588,-3.5592,-3.5666,-3.5668,-3.567,-3.5671,0,-3.5539,-3.5526,-3.5548,-3.5568,-3.5586,-3.5599,-3.5609,-3.5626,-3.5594,-3.5615,-3.5644,-3.5659,-3.5688,-3.5714,-3.5731,-3.573,-3.5696,-3.5691,-3.5704,-3.5715,-3.5722,-3.5719,-3.5522,-3.5686,-3.5685,-3.5684,-3.5683,-3.5682,-3.5651,-3.5683,-3.5685,-3.5711,-3.5716,-3.5726,-3.5754,-3.5744,-3.5768,-3.5789,-3.5769,-3.5805,-3.5808,-3.5828,-3.5831,-3.5859,-3.5832,-3.5852,-3.5857,-3.5862,-3.587,-3.5718,-3.5862,-3.5861,-3.5861,-3.586,-3.586,0,-3.58,-3.5799,-3.5824,-3.5839,-3.586,-3.5827,-3.5836,-3.5856,-3.5888,-3.5894,-3.5914,-3.5948,-3.5973,-3.5962,-3.5985,-3.6009,-3.5994,-3.6016,-3.6013,-3.6014,-3.5893,-3.5879,-3.6027,-3.6027,-3.6027,-3.6027,-3.6027,-3.6027,-3.5879,-3.5931,-3.592,-3.5973,-3.5972,-3.6006,-3.6015,-3.6025,-3.6029,-3.607,-3.609,-3.6083,-3.6083,-3.6105,-3.6127,-3.6123,-3.6133,-3.6161,-3.6152,-3.6039,-3.6022,-3.6007,-3.5993,-3.6164,-3.6164,-3.6271,-3.6272,-3.6273]},{"header":{"parameterUnit":"m.s-1","parameterCategory":1,"la1":30.2991,"la2":30.254,"lo1":-89.0895,"lo2":-89.0444,"dy":0.0017,"dx":0.0017,"nx":28,"ny":28,"refTime":"2024-03-03T03:00:00:Z","depth":0,"parameterNumber":3,"parameterNumberName":"V-component_of_WINDS"},"data":[0,0,0,0,0,0,0,0,0,0,0,0,0,0,0,0,0,0,0,0,0,0,0,0,0,0,0,0,0,0,0,0,0,0,0,0,0,0,0,0,0,0,0,0,0,0,0,0,0,0,0,0,0,0,0,0,0,0,0.8193,0.8193,0,0.8199,0.8199,0.82,0.8205,0.8205,0.8205,0.8205,0.8208,0.8208,0.8208,0,0,0,0,0,0,0,0,0,0,0,0,0,0.8185,0.8185,0.8193,0.8193,0.8193,0.8199,0.8199,0.82,0.8205,0.8205,0.8205,0.8205,0.8208,0.8208,0.8208,0,0,0,0,0,0,0,0,0,0,0,0,0,0.8189,0.8185,0.8193,0.8197,0.8197,0.8199,0.8199,0.82,0.8205,0.8205,0.8205,0.8205,0.8208,0.8208,0.8208,0.8207,0,0,0.8209,0.8209,0,0,0,0,0,0,0,0,0.8189,0.819,0.8196,0.8196,0.8197,0.8201,0.8198,0.8202,0.8205,0.8202,0.8205,0.8205,0.8206,0.8206,0.8207,0.8207,0.8207,0.8209,0.8209,0.8209,0.8209,0,0,0,0,0,0,0,0.8189,0.8189,0.8196,0.8196,0.8197,0.8198,0.8198,0.8199,0.8203,0.8202,0.8202,0.8203,0.8206,0.8207,0.8207,0.8207,0.8209,0.8209,0.8209,0.8209,0.8209,0.8209,0,0,0,0,0,0,0.8188,0.8189,0.8195,0.8196,0.8193,0.8198,0.8199,0.82,0.8203,0.8204,0.8203,0.8203,0.8207,0.8207,0.8207,0.8207,0.8209,0.8209,0.8209,0.8209,0.8209,0.8209,0,0,0,0,0,0,0.8188,0.8189,0.8195,0.8193,0.8193,0.8198,0.8199,0.82,0.8201,0.8204,0.8205,0.8203,0.8207,0.8207,0.8208,0.8207,0.8209,0.8209,0.8209,0.8209,0.8209,0.8205,0,0,0,0,0,0,0.8188,0.8188,0.8188,0.8193,0.8194,0.8196,0.8199,0.82,0.8201,0.8202,0.8204,0.8205,0.8207,0.8208,0.8208,0.8207,0.8209,0.8209,0.8209,0.8209,0.8205,0.8205,0.8205,0,0,0,0,0,0.8187,0.8186,0.8188,0.8189,0.8193,0.8195,0.8196,0.8199,0.8201,0.8201,0.8203,0.8205,0.8207,0.8208,0.8208,0.8207,0.8209,0.8209,0.8209,0.8205,0.8205,0.8205,0,0,0,0,0,0,0.8179,0.8186,0.8189,0.8189,0.8192,0.8196,0.8196,0.8199,0.82,0.82,0.8204,0.8204,0.8205,0.8206,0.8206,0.8207,0.8208,0.8208,0.8206,0.8205,0.8205,0.8204,0.8209,0,0,0,0,0,0.8178,0.8179,0.8185,0.8185,0.8186,0.8191,0.8192,0.8195,0.8197,0.8198,0.8201,0.8203,0.8204,0.8205,0.8206,0.8206,0.8207,0.8206,0.8205,0.8205,0.8205,0.8206,0.8206,0.8208,0.8208,0.8208,0,0,0.8174,0.8178,0.8178,0.8183,0.8186,0.8188,0.8192,0.8193,0.8194,0.8198,0.8199,0.8201,0.8204,0.8205,0.8205,0.8206,0.8205,0.8205,0.8205,0.8204,0.8206,0.8206,0.8205,0.8208,0.8208,0.8208,0,0,0.8168,0.8171,0.8172,0.8175,0.818,0.8183,0.8184,0.8189,0.819,0.8192,0.8196,0.8197,0.8199,0.8202,0.8203,0.8201,0.8203,0.8202,0.8199,0.8201,0.82,0.82,0.82,0.82,0.8201,0.8201,0.8201,0,0.8162,0.8165,0.8171,0.8173,0.8175,0.8181,0.8182,0.8185,0.8189,0.819,0.8192,0.8196,0.8198,0.82,0.82,0.8201,0.8201,0.8201,0.82,0.82,0.82,0.82,0.82,0.8201,0.8201,0.8201,0.8201,0,0.8159,0.8161,0.8161,0.8167,0.817,0.8171,0.8177,0.8178,0.8182,0.8185,0.8188,0.8191,0.8194,0.8195,0.8197,0.8197,0.8198,0.82,0.8201,0.8199,0.8199,0.8199,0.8201,0.8201,0.8201,0.8201,0,0,0.8145,0.8157,0.8156,0.816,0.8167,0.8169,0.8171,0.8176,0.8177,0.8181,0.8183,0.8186,0.8189,0.819,0.8193,0.8194,0.8194,0.8196,0.8196,0.8196,0.8195,0.8194,0.8194,0.8196,0.8196,0.8196,0.8195,0,0.814,0.8145,0.8152,0.8154,0.8157,0.8164,0.8166,0.8171,0.8175,0.8178,0.8182,0.8184,0.8187,0.8188,0.819,0.8194,0.8194,0.8194,0.8197,0.8197,0.8196,0.8193,0.8191,0.819,0.8195,0.8195,0.8195,0,0.8134,0.814,0.8143,0.8152,0.8153,0.8155,0.8161,0.8164,0.8169,0.8172,0.8176,0.818,0.8183,0.8185,0.8189,0.8189,0.8191,0.8194,0.8194,0.8193,0.8196,0.8193,0.819,0.819,0.8195,0.8195,0.8195,0,0.8125,0.8132,0.8136,0.8139,0.8149,0.8151,0.8155,0.8161,0.8164,0.8169,0.8171,0.8176,0.8178,0.8182,0.8187,0.8188,0.8191,0.8193,0.8193,0.8193,0.8192,0.8192,0.819,0.8195,0.8195,0.8195,0.8195,0,0.8118,0.812,0.8132,0.8134,0.8137,0.8145,0.8147,0.8152,0.8158,0.8161,0.8167,0.817,0.8177,0.8181,0.8185,0.8189,0.8189,0.8192,0.8193,0.8191,0.8191,0.8192,0.8192,0.8195,0.8195,0.8195,0.8195,0,0.8107,0.8115,0.812,0.813,0.8133,0.8135,0.8143,0.8146,0.8151,0.8155,0.8157,0.8165,0.817,0.8176,0.8182,0.8186,0.8189,0.819,0.8187,0.8187,0.8187,0.8187,0.8184,0.8185,0.819,0.819,0.819,0,0.8102,0.8104,0.8115,0.8119,0.8123,0.8128,0.8132,0.8141,0.8144,0.8153,0.8154,0.816,0.8165,0.8173,0.8179,0.8184,0.8186,0.8185,0.8187,0.8185,0.8186,0.8186,0.8186,0.8184,0.8184,0.8184,0.8184,0,0.8092,0.8097,0.8102,0.811,0.8115,0.8121,0.8128,0.813,0.814,0.8144,0.815,0.8154,0.8162,0.8168,0.8175,0.8179,0.8183,0.8184,0.8184,0.8182,0.818,0.8181,0.8185,0.8183,0.8183,0.8183,0.8183,0.8183,0.8083,0.8086,0.8096,0.8102,0.8109,0.8115,0.8119,0.8126,0.8131,0.8139,0.8144,0.815,0.8158,0.8168,0.8172,0.8177,0.8178,0.8179,0.8179,0.8178,0.8178,0.818,0.8178,0.8178,0.8178,0.8178,0.8178,0,0.8074,0.8081,0.8088,0.8098,0.8103,0.8109,0.8117,0.8121,0.8127,0.8134,0.814,0.8148,0.8154,0.8162,0.8169,0.8172,0.8174,0.8173,0.8172,0.8174,0.8176,0.8175,0.8171,0.8171,0.8171,0.8171,0.8171,0.8171,0.807,0.8075,0.8082,0.8091,0.8098,0.8105,0.8109,0.8116,0.8122,0.8131,0.8137,0.8143,0.815,0.8159,0.8165,0.8167,0.8169,0.8168,0.8171,0.8173,0.8173,0.8174,0.8173,0.8168,0.8168,0.8168,0.8168,0.8168]}]]